Location: Baumgarten
(49.0970°N, 12.7493°E)
Time: 02:58:26
(UTC+00:00)

Cosmos 2084 - Pass Details

Date: 05 July 2020
Orbit: 571 x 611 km, 62.8° (Epoch: 04 August)

Event Time Altitude Azimuth Distance (km) Brightness Sun altitude
Rises 20:00:01 0° 318° (NW) 2,884 9.8 -6.3°
Reaches altitude 10° 20:02:24 10° 325° (NW) 1,977 7.9 -6.5°
Maximum altitude 20:06:41 43° 38° (NE) 862 4.4 -7.0°
Drops below altitude 10° 20:10:56 10° 111° (ESE) 1,960 5.6 -7.5°
Enters shadow 20:11:33 - 113° (ESE) 2,192 5.8 -7.6°
